Time,TemperatureF,DewpointF,PressureIn,WindDirection,WindDirectionDegrees,WindSpeedMPH,WindSpeedGustMPH,Humidity,HourlyPrecipIn,Conditions,Clouds,dailyrainin,SoftwareType,DateUTC
2013-03-23 00:00:00,45.0,44.0,-100.00,North,10,5.0,-999.0,96,0.00,,,0.00,,2013-03-23 05:00:00,
2013-03-23 00:32:00,45.0,44.0,-100.00,North,10,5.0,-999.0,96,0.00,,,0.00,,2013-03-23 05:32:00,
2013-03-23 00:42:00,45.0,44.0,-100.00,North,10,5.0,-999.0,96,0.00,,,0.00,,2013-03-23 05:42:00,
2013-03-23 00:52:00,45.0,44.0,-100.00,North,10,5.0,-999.0,96,0.00,,,0.00,,2013-03-23 05:52:00,
2013-03-23 01:00:00,44.0,43.0,-100.00,NNE,18,6.0,-999.0,97,0.00,,,0.00,,2013-03-23 06:00:00,
2013-03-23 01:32:00,44.0,43.0,-100.00,NNE,18,6.0,-999.0,97,0.00,,,0.00,,2013-03-23 06:32:00,
2013-03-23 01:42:00,44.0,43.0,-100.00,NNE,18,6.0,-999.0,97,0.00,,,0.00,,2013-03-23 06:42:00,
2013-03-23 01:52:00,44.0,43.0,-100.00,NNE,18,6.0,-999.0,97,0.00,,,0.00,,2013-03-23 06:52:00,
2013-03-23 02:00:00,43.0,43.0,-100.00,NNE,24,7.0,-999.0,98,0.00,,,0.00,,2013-03-23 07:00:00,
2013-03-23 02:32:00,43.0,43.0,-100.00,NNE,24,7.0,-999.0,98,0.00,,,0.00,,2013-03-23 07:32:00,
2013-03-23 02:42:00,43.0,43.0,-100.00,NNE,24,7.0,-999.0,98,0.00,,,0.00,,2013-03-23 07:42:00,
2013-03-23 02:52:00,43.0,43.0,-100.00,NNE,24,7.0,-999.0,98,0.00,,,0.00,,2013-03-23 07:52:00,
2013-03-23 03:00:00,43.0,43.0,-100.00,NNE,22,7.0,-999.0,99,0.00,,,0.00,,2013-03-23 08:00:00,
2013-03-23 03:32:00,43.0,43.0,-100.00,NNE,22,7.0,-999.0,99,0.00,,,0.00,,2013-03-23 08:32:00,
2013-03-23 03:42:00,43.0,43.0,-100.00,NNE,22,7.0,-999.0,99,0.00,,,0.00,,2013-03-23 08:42:00,
2013-03-23 03:52:00,43.0,43.0,-100.00,NNE,22,7.0,-999.0,99,0.00,,,0.00,,2013-03-23 08:52:00,
2013-03-23 04:00:00,43.0,43.0,-100.00,NNE,17,5.0,-999.0,100,0.00,,,0.00,,2013-03-23 09:00:00,
2013-03-23 04:33:00,43.0,43.0,-100.00,NNE,17,5.0,-999.0,100,0.00,,,0.00,,2013-03-23 09:33:00,
2013-03-23 04:43:00,43.0,43.0,-100.00,NNE,17,5.0,-999.0,100,0.00,,,0.00,,2013-03-23 09:43:00,
2013-03-23 04:53:00,43.0,43.0,-100.00,NNE,17,5.0,-999.0,100,0.00,,,0.00,,2013-03-23 09:53:00,
2013-03-23 05:00:00,43.0,43.0,-100.00,ENE,64,2.0,-999.0,100,0.00,,,0.00,,2013-03-23 10:00:00,
2013-03-23 05:34:00,43.0,43.0,-100.00,ENE,64,2.0,-999.0,100,0.00,,,0.00,,2013-03-23 10:34:00,
2013-03-23 05:43:00,43.0,43.0,-100.00,ENE,64,2.0,-999.0,100,0.00,,,0.00,,2013-03-23 10:43:00,
2013-03-23 05:52:00,43.0,43.0,-100.00,ENE,64,2.0,-999.0,100,0.00,,,0.00,,2013-03-23 10:52:00,
2013-03-23 06:00:00,43.0,43.0,-100.00,NNE,21,4.0,-999.0,100,0.00,,,0.00,,2013-03-23 11:00:00,
2013-03-23 06:32:00,43.0,43.0,-100.00,NNE,21,4.0,-999.0,100,0.00,,,0.00,,2013-03-23 11:32:00,
2013-03-23 06:42:00,43.0,43.0,-100.00,NNE,21,4.0,-999.0,100,0.00,,,0.00,,2013-03-23 11:42:00,
2013-03-23 06:52:00,43.0,43.0,-100.00,NNE,21,4.0,-999.0,100,0.00,,,0.00,,2013-03-23 11:52:00,
2013-03-23 07:00:00,43.0,43.0,-100.00,NNE,16,3.0,-999.0,100,0.00,,,0.00,,2013-03-23 12:00:00,
2013-03-23 07:33:00,43.0,43.0,-100.00,NNE,16,3.0,-999.0,100,0.00,,,0.00,,2013-03-23 12:33:00,
2013-03-23 07:43:00,43.0,43.0,-100.00,NNE,16,3.0,-999.0,100,0.00,,,0.00,,2013-03-23 12:43:00,
2013-03-23 07:53:00,43.0,43.0,-100.00,NNE,16,3.0,-999.0,100,0.00,,,0.00,,2013-03-23 12:53:00,
2013-03-23 08:00:00,43.0,43.0,-100.00,North,9,5.0,-999.0,100,0.00,,,0.00,,2013-03-23 13:00:00,
2013-03-23 08:33:00,43.0,43.0,-100.00,North,9,5.0,-999.0,100,0.00,,,0.00,,2013-03-23 13:33:00,
2013-03-23 08:43:00,43.0,43.0,-100.00,North,9,5.0,-999.0,100,0.00,,,0.00,,2013-03-23 13:43:00,
2013-03-23 08:53:00,43.0,43.0,-100.00,North,9,5.0,-999.0,100,0.00,,,0.00,,2013-03-23 13:53:00,
2013-03-23 09:00:00,43.0,43.0,-100.00,ESE,120,2.0,-999.0,100,0.00,,,0.00,,2013-03-23 14:00:00,
2013-03-23 09:32:00,43.0,43.0,-100.00,ESE,120,2.0,-999.0,100,0.00,,,0.00,,2013-03-23 14:32:00,
2013-03-23 09:43:00,43.0,43.0,-100.00,ESE,120,2.0,-999.0,100,0.00,,,0.00,,2013-03-23 14:43:00,
2013-03-23 09:53:00,43.0,43.0,-100.00,ESE,120,2.0,-999.0,100,0.00,,,0.00,,2013-03-23 14:53:00,
2013-03-23 10:00:00,44.0,44.0,-100.00,SSE,160,5.0,-999.0,100,0.00,,,0.00,,2013-03-23 15:00:00,
2013-03-23 10:33:00,44.0,44.0,-100.00,SSE,160,5.0,-999.0,100,0.00,,,0.00,,2013-03-23 15:33:00,
2013-03-23 10:44:00,44.0,44.0,-100.00,SSE,160,5.0,-999.0,100,0.00,,,0.00,,2013-03-23 15:44:00,
2013-03-23 10:53:00,44.0,44.0,-100.00,SSE,160,5.0,-999.0,100,0.00,,,0.00,,2013-03-23 15:53:00,
2013-03-23 11:00:00,45.0,45.0,-100.00,East,100,5.0,-999.0,100,0.01,,,0.01,,2013-03-23 16:00:00,
2013-03-23 11:33:00,45.0,45.0,-100.00,East,100,5.0,-999.0,100,0.01,,,0.01,,2013-03-23 16:33:00,
2013-03-23 11:43:00,45.0,45.0,-100.00,East,100,5.0,-999.0,100,0.01,,,0.01,,2013-03-23 16:43:00,
2013-03-23 11:53:00,45.0,45.0,-100.00,East,100,5.0,-999.0,100,0.01,,,0.01,,2013-03-23 16:53:00,
2013-03-23 12:00:00,46.0,46.0,-100.00,NNE,23,6.0,-999.0,100,0.00,,,0.01,,2013-03-23 17:00:00,
2013-03-23 12:33:00,46.0,46.0,-100.00,NNE,23,6.0,-999.0,100,0.00,,,0.01,,2013-03-23 17:33:00,
2013-03-23 12:43:00,46.0,46.0,-100.00,NNE,23,6.0,-999.0,100,0.00,,,0.01,,2013-03-23 17:43:00,
2013-03-23 12:53:00,46.0,46.0,-100.00,NNE,23,6.0,-999.0,100,0.00,,,0.01,,2013-03-23 17:53:00,
2013-03-23 13:00:00,46.0,46.0,-100.00,NE,36,5.0,-999.0,100,0.01,,,0.02,,2013-03-23 18:00:00,
2013-03-23 13:32:00,46.0,46.0,-100.00,NE,36,5.0,-999.0,100,0.01,,,0.02,,2013-03-23 18:32:00,
2013-03-23 13:43:00,46.0,46.0,-100.00,NE,36,5.0,-999.0,100,0.01,,,0.02,,2013-03-23 18:43:00,
2013-03-23 13:53:00,46.0,46.0,-100.00,NE,36,5.0,-999.0,100,0.01,,,0.02,,2013-03-23 18:53:00,
2013-03-23 14:00:00,47.0,47.0,-100.00,SSE,156,7.0,-999.0,100,0.06,,,0.08,,2013-03-23 19:00:00,
2013-03-23 14:32:00,47.0,47.0,-100.00,SSE,156,7.0,-999.0,100,0.06,,,0.08,,2013-03-23 19:32:00,
2013-03-23 14:43:00,47.0,47.0,-100.00,SSE,156,7.0,-999.0,100,0.06,,,0.08,,2013-03-23 19:43:00,
2013-03-23 14:53:00,47.0,47.0,-100.00,SSE,156,7.0,-999.0,100,0.06,,,0.08,,2013-03-23 19:53:00,
2013-03-23 15:00:00,48.0,48.0,-100.00,ESE,105,5.0,-999.0,100,0.02,,,0.10,,2013-03-23 20:00:00,
2013-03-23 15:32:00,48.0,48.0,-100.00,ESE,105,5.0,-999.0,100,0.02,,,0.10,,2013-03-23 20:32:00,
2013-03-23 15:43:00,48.0,48.0,-100.00,ESE,105,5.0,-999.0,100,0.02,,,0.10,,2013-03-23 20:43:00,
2013-03-23 15:53:00,48.0,48.0,-100.00,ESE,105,5.0,-999.0,100,0.02,,,0.10,,2013-03-23 20:53:00,
2013-03-23 16:00:00,48.0,48.0,-100.00,SSW,207,2.0,-999.0,100,0.06,,,0.16,,2013-03-23 21:00:00,
2013-03-23 16:43:00,48.0,48.0,-100.00,SSW,207,2.0,-999.0,100,0.06,,,0.16,,2013-03-23 21:43:00,
2013-03-23 16:54:00,48.0,48.0,-100.00,SSW,207,2.0,-999.0,100,0.06,,,0.16,,2013-03-23 21:54:00,
2013-03-23 17:00:00,48.0,48.0,-100.00,South,188,2.0,-999.0,100,0.00,,,0.16,,2013-03-23 22:00:00,
2013-03-23 17:33:00,48.0,48.0,-100.00,South,188,2.0,-999.0,100,0.00,,,0.16,,2013-03-23 22:33:00,
2013-03-23 17:43:00,48.0,48.0,-100.00,South,188,2.0,-999.0,100,0.00,,,0.16,,2013-03-23 22:43:00,
2013-03-23 17:53:00,48.0,48.0,-100.00,South,188,2.0,-999.0,100,0.00,,,0.16,,2013-03-23 22:53:00,
2013-03-23 18:00:00,49.0,49.0,-100.00,SE,127,2.0,-999.0,100,0.12,,,0.28,,2013-03-23 23:00:00,
2013-03-23 18:33:00,49.0,49.0,-100.00,SE,127,2.0,-999.0,100,0.12,,,0.28,,2013-03-23 23:33:00,
2013-03-23 18:43:00,49.0,49.0,-100.00,SE,127,2.0,-999.0,100,0.12,,,0.28,,2013-03-23 23:43:00,
2013-03-23 18:52:00,49.0,49.0,-100.00,SE,127,2.0,-999.0,100,0.12,,,0.28,,2013-03-23 23:52:00,
2013-03-23 19:00:00,48.0,48.0,-100.00,SSE,158,1.0,-999.0,100,0.00,,,0.28,,2013-03-24 00:00:00,
2013-03-23 19:32:00,48.0,48.0,-100.00,SSE,158,1.0,-999.0,100,0.00,,,0.28,,2013-03-24 00:32:00,
2013-03-23 19:42:00,48.0,48.0,-100.00,SSE,158,1.0,-999.0,100,0.00,,,0.28,,2013-03-24 00:42:00,
2013-03-23 19:52:00,48.0,48.0,-100.00,SSE,158,1.0,-999.0,100,0.00,,,0.28,,2013-03-24 00:52:00,
2013-03-23 20:00:00,48.0,48.0,-100.00,South,186,1.0,-999.0,100,0.00,,,0.28,,2013-03-24 01:00:00,
2013-03-23 20:32:00,48.0,48.0,-100.00,South,186,1.0,-999.0,100,0.00,,,0.28,,2013-03-24 01:32:00,
2013-03-23 20:43:00,48.0,48.0,-100.00,South,186,1.0,-999.0,100,0.00,,,0.28,,2013-03-24 01:43:00,
2013-03-23 20:53:00,48.0,48.0,-100.00,South,186,1.0,-999.0,100,0.00,,,0.28,,2013-03-24 01:53:00,
2013-03-23 21:00:00,48.0,48.0,-100.00,SE,138,4.0,-999.0,100,0.00,,,0.28,,2013-03-24 02:00:00,
2013-03-23 21:32:00,48.0,48.0,-100.00,SE,138,4.0,-999.0,100,0.00,,,0.28,,2013-03-24 02:32:00,
2013-03-23 21:43:00,48.0,48.0,-100.00,SE,138,4.0,-999.0,100,0.00,,,0.28,,2013-03-24 02:43:00,
2013-03-23 21:52:00,48.0,48.0,-100.00,SE,138,4.0,-999.0,100,0.00,,,0.28,,2013-03-24 02:52:00,
2013-03-23 22:00:00,48.0,48.0,-100.00,SE,135,4.0,-999.0,100,0.01,,,0.29,,2013-03-24 03:00:00,
2013-03-23 22:33:00,48.0,48.0,-100.00,SE,135,4.0,-999.0,100,0.01,,,0.29,,2013-03-24 03:33:00,
2013-03-23 22:43:00,48.0,48.0,-100.00,SE,135,4.0,-999.0,100,0.01,,,0.29,,2013-03-24 03:43:00,
2013-03-23 22:53:00,48.0,48.0,-100.00,SE,135,4.0,-999.0,100,0.01,,,0.29,,2013-03-24 03:53:00,
2013-03-23 23:00:00,48.0,48.0,-100.00,ESE,114,2.0,-999.0,100,0.00,,,0.29,,2013-03-24 04:00:00,
2013-03-23 23:33:00,48.0,48.0,-100.00,ESE,114,2.0,-999.0,100,0.00,,,0.29,,2013-03-24 04:33:00,
2013-03-23 23:43:00,48.0,48.0,-100.00,ESE,114,2.0,-999.0,100,0.00,,,0.29,,2013-03-24 04:43:00,
2013-03-23 23:53:00,48.0,48.0,-100.00,ESE,114,2.0,-999.0,100,0.00,,,0.29,,2013-03-24 04:53:00,